Location: Saginaw
(43.4195°N, 83.9508°W)
Time: 05:00:50
(UTC-05:00)

Daily predictions for brighter satellites

Satellite Brightness Start Highest point End
(mag) Time Altitude Azimuth Time Altitude Azimuth Time Altitude Azimuth
USA 229 DEB 4.0 04:50:54 64° NE 04:51:06 64° NE 04:58:16 10° SE
USA 229 4.0 04:50:57 64° NE 04:51:12 64° NE 04:58:21 10° SE
ISS 0.0 05:16:07 13° E 05:16:07 13° E 05:16:35 10° ESE
Cosmos 2237 Rocket 3.7 05:22:48 24° S 05:22:48 24° S 05:24:57 10° S
SL-16 R/B 2.3 05:22:49 63° NNE 05:23:33 71° ENE 05:29:11 10° SSE
Feng Yun 1-1 Rocket 4.1 05:26:19 10° NNE 05:31:23 75° NNW 05:31:23 75° NNW
Cosmos 2297 Rocket 2.2 05:33:23 66° NNW 05:33:23 66° NNW 05:38:27 10° NNE
Cosmos 1842 Rocket 4.1 05:33:06 10° S 05:37:20 56° E 05:41:37 10° NNE
Cosmos 2233 Rocket 4.1 05:31:08 10° S 05:37:21 73° E 05:43:39 10° NNE
COSMO-SKYMED 1 2.8 05:34:45 10° SSE 05:39:03 66° ENE 05:39:29 62° NE
USA 234 4.0 05:33:50 10° E 05:40:00 46° NNE 05:42:59 29° NNW
Cosmos 2151 4.1 05:39:27 18° NNE 05:42:12 42° ENE 05:46:14 10° SSE
ERBS 3.9 05:44:40 34° ENE 05:44:40 34° ENE 05:47:12 10° ESE
Cosmos 2227 Rocket 2.9 05:46:53 38° NNW 05:46:53 38° NNW 05:50:54 10° NNE
NOSS 3-1 (C) 4.3 05:41:10 25° NNW 05:45:56 65° NE 05:54:09 10° SE
Cosmos 1340 Rocket 4.4 05:44:22 14° NNE 05:47:20 33° ENE 05:50:56 10° SE
Meteor 1-4 Rocket 3.5 05:48:27 44° NE 05:48:27 44° NE 05:51:13 10° NNE
Cosmos 1271 Rocket 4.2 05:47:59 10° SSE 05:51:31 36° E 05:55:01 10° NNE
Cosmos 1500 Rocket 3.5 05:52:33 55° N 05:53:32 89° WSW 05:57:59 10° S
Meteor 1-28 Rocket 3.7 05:50:51 10° SSE 05:54:32 58° ENE 05:55:51 35° NNE
Cosmos 1816 Rocket 4.4 05:48:56 10° NNW 05:55:12 64° W 06:01:22 10° S
Ariane Rocket 3.7 05:51:58 10° NNE 05:56:58 53° E 06:01:57 10° S
SL-14 R/B 3.7 05:55:40 25° N 05:57:53 64° E 06:01:55 10° SSE
Cosmos 2346 Rocket 4.3 05:55:08 10° N 06:01:17 79° W 06:07:21 10° S
Cosmos 220 Rocket 3.9 06:01:45 34° SSW 06:03:38 78° WNW 06:08:04 10° NNE
Cosmos 1626 4.5 06:03:20 10° NNE 06:06:27 24° ENE 06:09:32 10° SE
Tsikada Rocket 4.3 06:04:33 28° NW 06:07:17 43° W 06:13:10 10° SSW
DMSP B5D1-3 4.4 06:09:13 10° S 06:14:20 71° WSW 06:19:27 10° NNW
Cosmos 2082 4.4 06:14:48 31° NW 06:14:48 31° NW 06:19:48 10° N
CZ-2C R/B 4.2 06:11:12 10° NE 06:15:16 30° E 06:19:16 10° SSE
ATLAS CENTAUR R/B 4.2 06:14:04 13° N 06:15:55 16° NNE 06:20:05 10° ENE
CZ-4 R/B 3.2 06:16:48 10° NNE 06:20:32 34° E 06:24:17 10° SSE
SeaSat 1 4.0 06:19:51 10° N 06:22:19 19° NNW 06:22:19 19° NNW
SKYMED 2 4.1 06:23:13 10° SSW 06:27:14 37° W 06:28:08 33° WNW
Cosmos 1603 3.7 06:22:15 12° NNW 06:27:31 85° ENE 06:33:10 10° SSE
Cosmos 1464 Rocket 4.1 06:21:27 10° S 06:27:47 82° E 06:34:06 10° N
Cosmos 968 Rocket 3.6 06:23:29 10° SW 06:28:37 54° WNW 06:33:49 10° NNE
YAOGAN 1 4.5 06:28:15 10° NNE 06:32:11 33° E 06:36:05 10° SSE
Cosmos 2263 Rocket 4.4 06:29:51 10° SSE 06:34:34 28° ESE 06:39:20 10° NE
Meteor 2-12 Rocket 4.4 06:31:22 10° S 06:37:31 87° W 06:43:43 10° N
Cosmos 773 Rocket 3.9 06:32:37 10° NNW 06:37:54 74° WSW 06:43:10 10° S
Coronas F rocket 3.6 06:37:12 10° NNE 06:39:12 23° ENE 06:41:12 10° SE
Cosmos 1666 Rocket 4.0 06:39:55 10° N 06:44:22 64° E 06:48:48 10° SSE
Cosmos 1072 Rocket 4.4 06:41:29 10° SSW 06:47:36 66° W 06:53:43 10° N
Cosmos 2221 2.5 06:45:28 10° SSW 06:49:46 61° W 06:54:03 10° N
ISS -2.0 06:48:47 21° WSW 06:49:46 25° SW 06:52:29 10° SSE
CSL-04 Rocket 3.6 06:47:31 10° N 06:52:45 60° WNW 06:57:55 10° SSW
Aureole 1 4.3 06:51:49 10° SSW 06:54:51 60° WNW 06:58:28 10° NNE
NOSS 3-1 (A) 4.1 06:48:20 10° NW 06:55:51 72° WSW 07:04:10 10° SSE
Cosmos 2058 3.5 06:52:29 10° NNW 06:56:16 36° W 07:00:02 10° SSW
Genesis I 3.4 06:53:49 17° NW 06:56:35 51° WSW 07:00:22 10° SSE
Cosmos 2227 4.2 06:51:36 10° SW 06:57:09 63° WNW 07:02:45 10° NNE
Cosmos 1184 Rocket 2.7 06:55:31 10° N 06:58:51 87° WSW 07:02:09 10° S
SPOT 3 Rocket 4.2 06:55:24 10° NNE 07:00:35 62° ESE 07:05:44 10° S
Cosmos 1777 Rocket 4.1 06:57:15 10° SW 07:02:19 51° WNW 07:07:25 10° N
ATLAS 2AS CENTAUR R/B 3.7 06:56:48 10° NNW 07:04:43 52° NE 07:12:10 10° ESE
SL-16 R/B 3.6 07:04:44 14° WNW 07:07:00 17° W 07:10:32 10° SW
SL-8 R/B 3.7 07:03:57 15° WNW 07:08:01 83° SSW 07:12:48 10° ESE
Cosmos 1703 3.7 07:06:53 10° NNW 07:10:34 40° W 07:14:16 10° SSW
SL-12 R/B (Aux Motor) 4.2 07:06:43 10° WSW 07:11:29 79° NNW 07:13:43 10° ENE
TELKOM 3 3.0 07:09:30 12° WSW 07:11:42 53° NNW 07:13:49 10° NE
PSLV R/B 4.1 07:12:08 10° WSW 07:15:24 47° S 07:18:39 10° E
COSMO-SKYMED 1 4.4 07:14:04 10° WSW 07:15:39 12° W 07:16:42 11° WNW
IDEFIX/ARIANE 42P 2.6 07:10:26 10° N 07:15:42 71° WNW 07:20:56 10° SSW
Cosmos 1470 Rocket 4.2 07:12:31 10° N 07:16:48 58° E 07:21:04 10° SSE
Cosmos 2297 Rocket 3.8 07:15:15 11° WNW 07:17:51 14° NW 07:20:51 10° N
Helios 1B rocket 2.4 07:13:49 10° S 07:17:55 79° WSW 07:22:03 10° NNW
AQUARIUS 4.1 07:15:37 10° N 07:20:06 66° WNW 07:24:33 10° SSW
Cosmos 2228 Rocket 3.2 07:15:44 10° S 07:20:11 82° E 07:24:37 10° N
ERBS 3.8 07:18:03 11° WNW 07:20:32 22° SW 07:23:14 10° S
Cosmos 1356 Rocket 4.0 07:17:00 10° NNW 07:20:47 36° W 07:24:36 10° SSW
SJ-7 4.4 07:18:26 10° N 07:22:24 61° WNW 07:26:23 10° SSW
USA 234 3.4 07:16:18 10° SE 07:22:49 68° SW 07:29:23 10° NW
Cosmos 1805 Rocket 4.3 07:19:31 10° NNW 07:23:28 32° W 07:27:23 10° SSW
Cosmos 1340 Rocket 4.3 07:20:54 10° NW 07:23:34 18° W 07:26:13 10° SW
Cosmos 2344 4.0 07:17:56 10° SSW 07:25:34 76° ESE 07:34:12 10° NE
Cosmos 1271 Rocket 4.3 07:25:20 10° WSW 07:27:42 16° WNW 07:30:04 10° NNW
EP 2 4.3 07:27:19 10° SSW 07:29:54 81° SE 07:32:41 10° NE
Meteor 1-29 3.0 07:29:01 10° S 07:32:29 64° WSW 07:35:59 10° NNW
BREEZE-M DEB (TANK) 2.5 07:31:34 10° NW 07:34:09 39° NNE 07:36:10 10° E
Ariane Rocket 4.2 07:31:47 10° NNW 07:35:33 21° WNW 07:39:17 10° WSW
